AMOS-3

Last updated on Sun Nov 16 2025 00:03:40 GMT+0000 (Coordinated Universal Time)

1 32794U 08022A 25319.23724727 -.00000029 00000+0 00000+0 0 9991 2 32794 0.0055 96.5623 0003902 122.8829 276.4312 1.00272600 80195
UTC large
Height (km)
Speed (km/s)
/
Latitude / Longitude
Inclination (degrees)
Orbital Period (minutes)
Azimuth
Elevation
Range (km)
Doppler Factor

Next 0 passes for location: London (51.5072 / 0.1276)

Sorry there are no passes over London.